Theta_e
339 340 340 340 341 340 341 341 342 342 342 342 343 343 343 344 346 347 347 346 345 346 347 347 347 346 346 345 345 344 344 343 344 346 347 347 347 347 347 348 348 348 348 348 349 349 348 349 350 350 350 349 350 350 350 351 350 350 351 350 350 349 350 349 349 349 349 350 350 348 345 346 347 349
340 340 340 340 340 340 340 340 341 341 341 342 342 343 344 344 344 346 347 346 344 344 346 347 347 347 346 345 345 345 345 344 345 345 346 347 347 348 348 349 349 349 350 350 350 350 350 350 350 350 350 349 349 348 349 350 350 350 350 349 350 349 348 348 348 349 349 350 351 350 347 345 347 348
340 341 340 339 339 339 339 339 340 340 341 341 342 343 344 345 345 344 345 346 345 344 345 346 346 346 346 346 345 347 346 345 345 346 348 348 348 349 349 349 349 350 350 350 350 351 351 351 351 350 350 350 349 349 349 349 349 349 350 350 350 349 348 348 347 348 348 348 350 349 347 346 347 349
339 339 339 338 337 338 338 339 339 340 340 341 341 342 343 344 345 345 345 346 345 344 344 344 344 346 346 347 346 347 347 346 346 346 346 347 348 349 349 348 348 349 350 349 350 350 352 351 351 351 351 351 352 352 351 350 349 349 350 351 351 351 350 349 348 348 348 348 349 349 347 345 347 348
339 338 338 337 338 338 339 339 339 339 339 340 340 341 342 343 345 345 345 345 345 344 343 343 343 344 346 347 347 347 347 346 345 345 344 344 346 348 347 346 346 348 349 349 349 349 350 351 351 352 352 352 351 351 351 350 349 350 351 351 351 350 350 350 349 349 348 349 350 349 346 346 346 347
340 340 339 339 340 339 339 339 339 339 338 339 339 339 341 342 343 345 345 344 343 343 343 342 342 343 345 347 348 348 348 347 346 346 346 345 345 346 346 345 345 347 348 349 348 349 350 351 351 351 351 350 349 349 349 349 349 349 350 350 350 350 350 350 350 350 349 349 349 349 346 345 346 347
342 341 340 340 340 339 339 338 338 338 338 338 338 338 339 340 341 343 344 344 343 342 342 342 342 343 345 347 348 348 348 348 348 348 348 346 345 345 346 346 346 347 348 348 349 349 350 351 351 350 350 349 349 349 348 349 348 348 349 350 351 350 350 350 350 350 350 349 349 348 345 346 346 347
342 341 341 340 340 339 338 338 338 338 338 337 337 337 337 338 339 341 343 344 344 343 343 343 343 343 345 346 347 348 348 349 349 348 347 346 346 346 346 346 345 345 346 347 349 349 350 350 349 349 348 349 349 350 350 350 350 349 349 350 350 350 350 350 351 350 349 349 349 347 345 346 347 347
340 340 340 339 339 339 338 338 338 338 338 338 337 337 337 337 338 340 342 343 344 343 343 343 343 344 344 345 346 346 347 347 347 347 346 346 346 346 346 345 344 343 344 346 346 349 350 350 349 348 350 351 351 352 352 351 351 350 350 350 351 350 350 350 350 351 350 349 347 346 346 347 347 348
338 339 339 338 339 339 338 338 339 339 339 338 337 337 337 337 338 339 341 342 343 343 343 343 343 344 344 344 344 344 345 345 346 346 346 346 346 346 345 344 343 344 344 345 346 348 349 349 350 350 350 351 352 352 353 352 351 351 351 351 351 351 350 350 350 351 350 348 346 346 347 348 348 349
338 338 338 338 339 339 339 340 340 340 340 339 338 338 337 337 338 338 340 342 342 342 343 343 343 344 343 343 343 343 344 344 344 345 345 345 345 345 344 343 342 343 344 345 347 347 348 348 350 350 349 350 350 351 352 352 352 351 351 351 351 351 350 350 350 351 350 348 347 346 347 348 349 350
337 337 337 338 338 338 339 339 340 341 340 340 340 339 339 338 338 338 339 341 341 342 342 342 342 342 342 342 342 343 343 343 344 344 344 344 344 343 343 343 343 343 344 345 346 347 348 348 350 350 349 348 349 350 352 352 351 351 351 351 351 350 349 350 350 351 349 347 347 348 348 347 348 351
337 337 337 337 337 337 338 338 338 339 339 340 340 340 340 339 339 339 339 340 341 341 341 342 342 341 341 341 341 342 342 342 343 344 343 343 343 343 343 343 343 344 344 346 346 347 347 348 350 350 349 349 348 348 351 352 352 352 352 351 350 349 348 348 347 347 346 346 346 347 346 346 348 352
337 337 337 337 338 337 338 337 337 338 338 339 340 340 340 340 339 339 339 340 340 340 340 340 340 340 340 341 341 341 342 343 343 343 342 342 343 343 343 344 343 343 345 346 347 347 347 348 349 349 349 349 348 347 349 352 353 353 353 351 350 349 348 347 345 344 344 344 345 345 346 348 351 352
337 337 337 338 338 338 338 338 338 338 338 339 340 340 340 340 340 339 339 339 339 340 340 339 340 340 340 340 341 341 342 342 342 343 342 342 343 343 343 344 343 343 344 346 346 346 346 347 348 349 349 349 347 345 345 347 349 351 352 352 352 351 350 348 347 346 346 346 346 347 348 351 352 349
337 337 338 339 339 340 340 339 339 339 339 339 340 339 340 339 339 340 340 340 340 339 340 340 340 340 340 340 340 341 342 342 342 342 342 342 343 343 343 343 344 343 344 346 347 346 347 347 348 348 349 348 347 346 344 344 345 348 350 351 352 351 351 351 350 350 349 349 349 350 351 352 350 346
337 338 338 339 339 341 341 340 340 340 340 340 340 340 340 339 339 340 340 340 341 340 340 339 340 340 340 340 341 342 342 342 342 341 342 342 343 342 343 343 343 344 345 346 346 346 347 347 347 347 347 347 347 346 344 343 343 345 348 351 351 352 352 352 351 351 351 351 351 351 350 349 346 344
338 337 337 338 340 341 341 340 341 341 340 341 340 339 339 339 340 340 341 341 341 340 340 340 340 340 340 340 342 343 343 343 342 341 342 342 343 342 343 343 343 344 345 346 345 345 346 346 345 346 347 347 347 346 343 343 342 342 345 347 349 350 351 351 351 351 351 350 349 349 348 346 345 344
337 337 337 339 341 342 342 341 341 341 341 341 340 339 339 339 340 340 341 341 340 340 340 340 340 340 340 341 342 343 343 343 341 341 341 342 343 343 343 343 344 345 345 346 345 345 345 345 345 346 347 347 347 345 343 343 343 342 342 343 344 345 347 348 349 348 348 348 348 348 347 346 345 344
336 337 337 338 340 341 341 341 341 341 340 340 339 339 338 338 339 340 340 341 341 340 340 340 340 341 341 342 343 343 343 342 341 342 342 344 345 344 344 344 344 345 345 345 345 345 346 346 346 346 346 347 347 346 344 344 342 341 341 341 342 343 343 344 344 344 345 346 347 347 347 346 345 344
333 334 336 337 338 338 338 339 340 340 338 337 337 337 337 337 338 339 339 339 340 340 340 340 341 342 342 342 342 342 342 341 341 342 343 345 345 345 344 344 343 344 345 346 346 346 346 346 346 345 345 347 347 346 345 344 342 340 339 339 340 341 342 342 342 342 343 344 346 347 347 346 346 344
327 328 331 334 335 337 337 337 338 339 338 338 337 336 336 337 337 339 339 339 340 340 340 341 341 342 342 342 343 342 341 341 342 344 344 345 345 343 343 343 343 344 346 347 346 347 346 346 345 345 345 346 346 346 345 344 342 341 340 339 339 340 340 340 340 340 340 341 343 345 345 344 345 344
321 323 324 326 329 333 336 336 337 337 337 336 336 335 335 336 337 337 338 338 339 340 340 341 341 341 341 342 342 342 341 341 344 345 345 344 344 343 341 341 343 346 347 346 346 347 346 345 344 345 345 344 344 345 345 344 343 341 340 339 339 339 339 338 338 339 339 340 342 343 344 344 344 343
320 320 320 320 322 326 329 331 334 335 335 336 336 336 337 336 336 336 337 337 338 338 340 340 340 340 341 342 342 342 342 342 344 345 344 344 344 344 344 343 345 346 347 345 346 348 346 345 344 345 344 344 344 344 344 344 343 342 341 340 339 339 339 338 339 339 339 340 342 343 343 343 342 341
319 319 319 319 319 321 323 325 328 329 331 333 333 333 334 335 335 335 337 338 338 339 338 339 340 340 341 341 342 342 341 341 340 339 339 339 341 343 345 345 346 346 346 344 346 347 346 344 345 345 344 344 342 341 342 343 343 342 341 341 339 339 339 339 339 339 339 340 342 343 343 343 342 342
319 319 319 318 319 319 320 321 323 324 325 326 326 327 328 330 332 333 334 336 338 338 338 338 339 340 339 339 340 339 338 336 336 335 335 335 336 337 339 341 343 346 345 342 342 344 344 344 345 344 344 344 342 340 340 341 341 342 341 341 340 339 339 339 339 339 339 340 341 342 342 342 342 341
321 320 321 320 319 319 319 319 320 320 321 322 324 325 326 327 328 330 332 334 335 336 335 335 336 337 336 336 337 335 334 334 334 334 334 334 334 334 335 337 340 343 344 342 341 343 344 344 343 342 343 344 342 340 340 341 341 342 342 341 340 340 339 340 339 339 338 339 340 340 340 340 340 340
323 322 322 323 322 320 319 318 319 319 319 320 321 323 325 326 327 328 329 329 331 332 333 332 333 335 335 335 336 335 335 335 335 335 335 337 337 337 336 338 340 343 345 344 342 343 344 343 342 342 343 344 342 341 341 342 342 342 342 341 341 340 340 340 339 339 338 337 338 339 339 339 339 339
326 324 324 325 326 326 322 319 318 320 320 319 319 319 320 323 325 326 326 326 327 329 330 330 332 332 332 333 334 334 333 334 333 334 334 336 340 342 343 344 344 344 344 342 341 342 343 343 342 342 342 343 342 342 342 342 343 343 342 341 340 340 340 340 340 340 338 338 338 338 339 339 338 338
328 327 326 327 328 328 327 323 320 320 321 321 321 320 319 319 320 323 324 324 324 324 326 327 328 329 329 329 331 332 333 333 333 332 331 334 339 342 343 342 342 342 342 341 342 342 341 342 343 342 341 341 341 341 342 341 341 342 342 341 340 339 340 341 341 341 340 339 338 337 337 337 337 338
328 328 328 328 329 329 328 326 322 321 321 321 322 322 321 320 318 319 321 322 321 321 321 323 326 328 328 329 330 332 333 335 335 334 334 336 339 340 339 337 337 339 339 338 341 343 341 341 342 341 340 340 340 340 340 340 340 340 341 341 340 340 340 340 341 341 341 340 340 338 337 336 336 336
328 328 328 329 328 329 329 328 326 324 324 324 324 324 324 322 320 319 321 322 321 320 320 321 324 327 328 327 329 330 330 331 332 333 334 336 337 338 338 334 333 334 333 332 337 342 340 339 339 339 338 338 338 339 340 339 340 341 341 341 341 340 340 341 341 341 341 340 339 339 337 336 336 335
328 328 328 328 328 328 328 328 328 328 328 327 327 327 326 325 322 321 322 324 323 322 321 320 320 323 325 324 325 326 327 327 328 329 332 332 332 333 334 332 330 330 330 329 333 336 335 335 336 335 336 336 337 340 342 341 342 342 341 341 341 340 339 340 340 341 340 339 338 337 336 336 336 336
328 327 327 327 328 328 328 328 328 328 328 328 329 328 327 327 326 325 324 325 325 325 324 322 321 322 324 323 322 324 325 326 326 328 329 329 329 329 331 330 329 329 328 328 329 330 331 332 333 335 338 339 340 342 344 343 343 342 341 341 341 340 340 340 339 339 340 340 339 337 336 336 338 338
323 324 324 325 325 325 326 326 326 326 326 327 328 328 328 328 328 327 327 326 327 326 326 325 325 325 324 324 324 324 325 325 325 325 326 326 328 329 330 329 328 327 326 325 325 326 328 330 331 335 338 339 340 341 341 341 342 342 340 340 339 339 340 340 340 340 340 340 340 338 336 337 338 338
320 322 322 322 322 322 323 324 324 323 324 325 326 327 328 328 327 327 327 326 326 327 326 327 327 326 324 324 324 324 324 324 324 324 324 325 326 328 329 329 327 325 323 323 322 322 323 325 327 330 331 333 339 339 336 337 340 338 336 336 337 338 339 340 340 340 340 340 339 338 337 338 338 337
321 321 321 320 321 321 322 323 323 322 323 324 325 326 327 327 327 327 327 327 325 325 326 326 326 326 325 325 325 324 324 324 324 324 324 324 325 327 328 328 325 323 322 322 321 320 321 323 325 326 327 333 339 336 329 332 334 331 329 331 334 335 337 338 338 339 340 339 339 339 338 338 337 336
321 321 320 320 321 322 322 323 324 323 322 323 325 325 325 326 327 326 327 327 327 325 325 325 326 326 326 326 326 325 325 325 325 325 325 324 325 326 327 327 326 324 322 322 321 321 322 323 324 323 324 330 335 332 326 327 329 327 327 329 331 332 335 336 335 336 337 337 338 338 338 337 335 335
321 320 320 321 321 322 323 323 323 324 322 322 323 324 325 326 326 325 326 327 327 327 327 326 326 326 326 326 327 326 325 325 325 325 324 324 324 325 325 327 327 325 323 322 321 321 322 323 323 321 321 324 327 327 323 323 324 324 326 328 328 329 331 332 331 332 333 334 334 334 335 334 333 332
321 321 321 321 322 322 322 322 322 323 323 322 322 322 322 324 325 325 326 326 326 327 328 328 328 327 326 327 327 326 325 325 324 324 324 324 324 324 324 325 327 326 323 322 321 321 322 323 323 322 321 321 321 321 321 321 322 323 325 326 325 324 324 324 325 327 327 327 327 328 328 329 328 328
320 319 319 320 321 321 321 321 322 322 322 322 323 323 323 323 324 325 326 326 326 327 328 328 328 327 326 326 326 326 326 326 325 325 324 324 324 324 324 324 326 326 324 321 322 322 322 323 323 321 321 320 319 320 322 324 323 322 324 326 325 323 321 321 322 322 323 323 323 323 323 324 323 321
315 315 315 316 317 318 319 320 321 321 320 321 322 323 324 324 324 325 325 326 326 327 327 327 327 327 326 326 327 326 327 326 326 325 325 324 324 324 324 324 325 326 323 322 322 322 322 322 322 321 321 320 319 320 322 324 323 320 321 323 323 322 321 321 320 320 322 323 322 322 321 322 322 322
308 309 310 311 312 314 315 316 317 317 318 318 319 320 321 321 321 322 323 324 325 326 327 327 327 327 327 327 327 327 327 327 327 326 325 324 324 324 324 324 324 324 323 322 322 323 322 321 321 321 321 320 320 320 321 321 321 320 320 320 321 320 320 319 319 319 320 320 320 319 320 320 322 323
304 305 307 308 309 309 309 310 311 312 313 313 314 314 315 315 315 316 317 319 320 322 324 325 326 327 327 327 327 327 327 327 327 327 327 326 325 325 325 324 324 323 323 323 322 323 322 321 322 321 320 320 320 320 320 321 321 321 320 320 320 320 320 319 319 319 319 319 319 318 319 319 319 320
303 305 305 305 305 305 305 306 306 307 309 309 309 309 309 309 310 311 312 314 315 317 319 321 322 323 325 325 325 326 326 326 326 326 327 327 327 326 325 324 324 324 323 323 323 323 322 322 321 321 321 320 320 320 321 321 321 320 320 320 320 320 320 320 319 319 319 319 319 318 318 318 318 318
Wind_Speed
35 35 36 36 36 35 36 37 37 36 35 34 32 30 26 17 8 5 6 6 7 11 15 16 18 22 23 25 26 26 25 23 22 22 24 25 26 26 25 25 26 26 26 27 28 28 29 29 29 29 29 30 30 31 31 31 31 31 30 29 29 29 29 29 28 28 27 27 26 25 25 24 23 22
33 34 36 36 36 36 35 36 38 37 35 35 34 33 31 26 18 10 6 8 10 12 14 16 17 19 21 21 22 22 22 20 19 20 22 23 25 26 26 26 26 26 26 26 26 26 27 28 28 28 28 28 29 30 31 30 30 30 30 30 29 28 28 28 29 29 28 27 27 26 25 24 24 23
34 34 35 35 35 37 36 37 39 38 36 36 35 33 31 30 27 20 10 7 12 16 17 18 18 18 17 17 18 19 18 16 15 17 19 21 22 23 24 24 24 24 24 23 24 25 26 27 27 27 27 27 27 29 30 32 32 31 30 30 29 28 28 28 28 28 28 27 27 26 25 25 25 25
34 33 34 34 35 36 36 37 39 38 37 37 35 34 32 30 29 26 18 9 12 20 22 20 19 18 15 15 17 17 17 16 15 17 18 19 19 20 21 21 21 22 22 23 24 25 26 27 27 27 27 27 28 29 30 32 32 32 30 29 29 29 29 29 28 28 28 27 26 26 25 26 26 25
33 33 34 34 35 35 35 37 38 38 37 36 35 33 32 31 28 26 23 15 13 20 25 24 24 23 20 20 20 19 19 18 18 19 20 20 20 20 21 22 22 23 23 24 25 25 26 26 27 28 28 28 29 30 30 31 31 31 31 30 29 28 29 29 28 28 28 27 26 26 26 27 26 25
32 32 33 34 35 35 36 37 38 38 37 35 34 34 33 32 30 29 28 21 15 18 22 23 24 24 23 24 24 22 22 22 21 21 21 21 21 22 22 22 23 23 24 24 25 26 26 26 27 28 28 29 29 29 30 31 32 32 32 31 29 28 28 28 28 28 27 26 26 26 27 27 26 25
31 31 33 34 35 35 34 36 37 37 36 35 34 35 34 33 31 30 30 26 20 18 20 20 22 22 22 24 25 25 24 23 23 23 22 21 22 22 22 22 23 23 22 22 22 23 24 24 25 26 27 27 28 28 29 29 30 31 31 31 30 28 27 28 28 27 27 27 27 27 27 27 27 26
30 31 32 34 36 35 33 35 36 36 35 34 34 35 35 33 31 30 31 30 27 22 19 20 24 24 24 25 26 25 23 22 22 22 22 22 23 23 22 22 23 23 22 22 21 21 21 22 23 24 25 26 27 28 28 27 27 27 28 29 29 27 26 26 26 26 27 27 27 27 27 27 27 26
31 32 33 34 36 36 34 35 36 36 35 35 34 34 34 33 32 31 29 31 31 26 22 22 24 24 23 24 25 23 22 21 21 22 22 22 22 23 22 23 24 24 23 23 23 22 21 22 22 22 22 22 23 24 24 23 23 23 24 25 25 25 25 26 26 26 27 27 27 27 27 27 27 26
30 31 33 34 35 36 35 36 37 36 36 35 35 35 34 33 32 30 29 30 30 29 27 26 24 23 22 23 23 23 22 21 20 21 22 22 22 23 24 25 25 24 23 23 23 23 22 22 21 20 20 19 19 20 20 19 19 20 21 22 23 23 24 25 26 27 27 27 27 27 27 27 26 25
30 31 32 33 35 37 37 37 38 37 35 35 36 37 35 32 30 29 29 29 28 27 26 25 24 24 23 22 23 23 21 19 20 21 21 21 22 23 24 26 25 23 22 23 23 23 22 22 21 20 19 18 18 18 19 17 17 18 19 20 21 22 23 24 25 26 26 26 27 27 26 25 24 23
31 32 34 35 36 39 40 40 40 39 36 35 35 36 36 33 30 29 28 28 27 26 24 23 24 23 21 21 22 22 18 17 21 24 22 21 23 24 23 23 22 22 22 22 21 22 22 22 21 20 20 18 17 16 17 17 16 17 18 18 19 20 21 23 24 24 24 25 26 26 25 24 23 23
31 33 35 37 39 41 43 44 45 43 40 37 35 35 35 33 30 29 28 27 25 24 22 22 21 19 18 20 21 20 20 22 24 24 20 20 22 22 21 22 21 21 21 21 20 21 21 21 20 19 18 17 15 13 14 16 16 16 16 16 17 18 20 21 22 22 23 24 25 24 23 24 23 23
32 34 36 38 40 42 45 47 48 47 45 42 40 37 36 36 33 30 28 27 26 24 22 21 20 16 17 22 23 23 25 26 24 21 18 19 21 18 16 19 22 21 20 19 20 21 21 20 19 17 17 16 13 10 11 13 14 14 15 14 15 15 16 18 20 21 22 23 23 23 23 23 23 24
33 35 36 37 39 41 45 47 49 49 48 46 44 41 38 38 37 34 31 29 28 25 23 22 21 18 19 25 25 24 26 25 23 22 20 20 19 15 11 11 16 18 17 17 19 20 20 20 19 18 17 16 12 9 9 10 11 12 13 14 14 13 14 15 17 19 21 21 21 22 22 22 23 23
33 35 36 37 38 40 43 46 46 47 47 47 47 45 41 39 39 39 38 35 32 30 26 23 22 22 24 26 25 24 25 24 22 22 21 21 20 17 14 12 14 16 14 13 15 18 20 18 18 19 18 16 13 10 9 10 10 11 12 13 13 13 14 15 16 18 19 19 20 22 22 21 21 20
30 32 34 36 37 38 41 42 43 42 43 45 47 46 44 41 40 40 41 40 38 37 33 28 27 28 28 27 27 28 26 23 21 20 20 21 21 19 18 20 22 19 14 12 13 17 19 18 18 19 17 15 13 10 9 9 10 10 11 12 12 12 13 15 15 17 18 18 19 20 20 20 19 18
28 30 31 33 33 34 36 38 40 40 39 40 43 45 44 42 41 40 41 41 40 38 36 34 33 34 33 31 30 29 25 23 21 20 21 21 21 21 21 22 22 18 14 13 12 14 17 17 17 17 16 14 12 9 8 8 7 8 9 11 11 11 12 12 12 13 14 14 14 16 17 18 19 18
24 26 27 28 29 30 32 35 38 39 38 38 39 40 41 40 40 40 41 42 41 39 37 37 36 35 34 32 29 26 24 22 20 19 20 20 18 18 18 18 16 14 13 14 12 11 12 14 15 16 16 14 12 10 8 7 7 6 7 9 10 11 12 12 13 13 13 12 13 15 17 18 18 17
16 18 20 22 26 28 30 32 35 37 36 35 35 36 36 35 35 36 39 41 42 41 38 36 35 33 31 29 27 25 23 21 19 17 17 17 14 13 12 12 13 12 11 15 17 13 9 10 13 14 15 14 13 11 10 9 8 7 7 8 9 10 11 12 13 15 15 15 15 16 18 19 18 17
8 8 7 10 16 20 23 27 32 33 29 26 27 28 28 29 29 31 33 36 38 38 37 35 33 31 29 28 26 22 19 18 17 16 17 16 15 12 8 7 11 13 13 16 20 15 9 9 11 11 12 13 13 12 11 10 8 6 6 7 8 10 10 10 12 13 14 16 16 16 18 20 19 18
24 20 14 6 3 11 16 18 21 23 22 21 22 21 21 21 22 25 27 29 31 33 32 32 31 29 29 27 23 20 17 15 15 16 18 17 15 14 11 8 9 12 14 17 19 15 9 9 10 9 8 9 11 12 11 10 8 6 5 6 7 9 9 9 10 10 11 14 16 16 16 18 20 21
34 33 30 24 15 5 9 13 16 17 18 18 19 18 18 17 19 24 26 26 26 28 29 29 29 28 27 23 19 18 16 14 14 14 15 15 15 16 15 12 8 6 8 14 18 15 10 10 11 11 6 3 6 11 12 10 9 8 6 6 6 7 8 8 8 8 9 11 13 15 15 17 21 22
33 34 35 33 29 22 14 8 10 13 14 16 16 17 17 17 19 24 28 28 27 27 27 26 25 25 24 19 16 16 16 14 13 13 12 13 14 14 15 14 11 6 4 8 15 17 12 11 13 13 8 3 3 8 11 11 10 9 8 7 7 7 8 7 5 6 7 9 12 14 14 16 19 19
30 31 32 32 31 29 28 24 20 17 14 13 11 9 10 10 10 13 19 25 28 27 26 24 23 23 21 17 15 15 15 13 13 12 11 12 13 14 15 14 14 13 8 6 12 16 12 11 15 15 9 4 3 5 8 10 11 10 8 7 7 7 7 6 4 5 7 10 11 12 12 13 14 15
27 27 28 28 27 28 28 27 26 26 24 22 20 17 14 13 13 13 13 16 21 23 23 22 19 17 16 15 14 13 12 11 11 12 12 13 13 14 15 14 14 14 11 8 9 12 11 11 15 16 11 6 4 4 5 7 9 10 9 8 8 7 6 6 5 5 7 10 12 11 11 10 10 10
23 22 23 23 24 25 25 25 25 25 24 23 22 20 19 17 15 16 17 15 13 14 16 16 15 15 14 14 12 10 10 10 9 10 11 12 14 14 14 14 13 12 11 9 9 11 12 11 12 15 14 10 7 5 4 4 6 9 10 10 9 8 7 7 6 6 8 11 14 14 13 12 11 12
17 18 18 19 21 22 22 22 22 24 23 22 21 20 19 18 17 17 18 17 15 12 13 13 13 15 15 13 11 10 9 8 7 7 7 8 10 12 13 14 12 9 10 9 8 10 13 11 10 13 15 14 10 7 5 5 7 8 10 10 11 10 9 8 7 7 8 10 14 16 16 16 16 16
13 13 14 15 18 20 21 21 21 22 22 21 20 18 18 18 19 19 18 17 17 16 14 12 11 11 12 12 11 9 8 8 8 9 7 5 6 9 11 11 10 8 9 11 9 9 11 11 10 11 13 14 13 11 9 7 7 8 10 10 11 11 12 11 10 9 8 9 12 15 17 17 18 18
11 12 12 14 16 18 20 20 19 19 19 19 19 18 17 16 16 17 18 17 16 16 15 14 11 8 9 10 10 9 9 8 8 8 8 7 7 10 11 10 9 8 9 10 10 9 9 10 11 12 13 13 13 13 13 11 8 8 10 11 10 9 10 12 13 12 11 10 10 11 14 15 17 19
12 12 13 14 15 16 17 17 16 16 15 16 16 16 15 13 12 13 14 13 11 10 10 11 11 9 9 10 9 8 8 8 7 7 7 8 8 10 12 10 8 8 9 9 9 9 8 8 10 10 10 11 10 11 12 12 11 10 11 13 14 11 9 11 13 14 13 12 10 10 11 13 15 18
13 13 13 14 14 15 15 14 13 12 12 12 13 13 12 11 9 9 10 10 8 6 4 4 6 7 9 11 9 7 7 6 6 5 6 7 9 11 12 11 10 9 8 6 7 9 8 8 8 7 6 6 7 8 9 12 13 13 12 13 15 15 13 10 11 12 12 12 12 12 12 12 14 15
11 12 13 13 14 15 15 14 13 12 11 9 9 9 9 8 7 7 8 8 7 5 4 4 4 3 5 7 6 6 6 6 4 3 4 6 7 9 12 13 12 11 11 11 10 10 8 7 7 6 5 6 6 6 8 10 11 11 11 12 13 15 16 14 11 10 11 12 12 13 13 13 13 13
11 12 13 14 14 14 14 15 14 14 13 11 9 7 6 5 4 4 5 5 5 4 4 6 6 4 3 3 3 3 4 5 5 3 3 5 7 11 15 16 14 12 12 12 11 10 8 7 7 6 6 6 5 5 6 7 7 7 8 9 9 12 15 16 14 12 12 12 12 13 14 14 13 12
12 12 13 14 15 14 14 14 14 14 13 11 9 7 6 4 3 1 2 2 3 4 4 6 7 6 5 6 5 4 4 4 4 4 4 5 8 12 16 16 14 13 12 12 11 9 8 6 6 6 7 6 4 4 3 4 5 6 7 6 6 7 9 10 10 11 12 13 13 14 14 14 13 12
11 11 12 13 14 15 14 14 13 14 13 10 7 6 5 3 2 1 2 3 3 3 4 5 5 5 6 6 7 7 6 5 4 4 4 5 7 11 13 14 14 13 12 11 10 8 7 6 5 6 7 5 4 3 3 3 4 5 5 5 4 4 4 5 6 8 10 12 13 14 14 13 13 12
11 11 12 13 14 15 14 13 12 13 12 8 4 4 5 4 3 2 3 5 6 5 5 6 6 6 5 4 5 6 6 5 5 4 5 5 6 8 11 13 14 13 13 12 9 7 6 5 4 5 6 5 4 3 2 2 4 4 3 3 3 3 3 4 5 6 8 9 11 12 12 12 11 9
14 14 15 15 16 16 15 13 11 12 11 6 2 1 1 2 2 3 5 7 9 8 8 7 7 7 6 5 5 5 5 5 5 5 5 5 6 8 9 11 11 10 10 11 9 7 6 6 6 7 7 5 3 2 2 2 4 3 2 1 1 2 3 4 4 5 6 6 7 8 9 10 8 6
14 15 15 16 17 18 17 15 13 11 9 6 2 2 2 2 3 4 5 6 9 10 10 10 9 9 8 8 7 7 7 7 6 7 7 6 6 7 7 8 9 9 8 8 8 7 7 8 8 8 8 7 4 2 2 1 2 2 1 1 2 4 4 4 5 5 5 4 3 4 5 5 5 3
16 16 16 16 17 17 18 18 15 11 8 6 4 4 4 2 2 2 3 6 8 10 12 12 11 10 10 10 8 8 8 8 6 6 6 5 6 7 7 7 9 10 8 7 6 5 7 8 7 7 7 6 4 2 0 1 1 3 1 4 6 8 7 6 6 6 6 6 5 3 2 1 1 0
18 19 19 19 18 18 17 17 16 14 12 8 5 5 5 5 3 2 2 2 4 6 8 9 9 9 10 10 9 9 9 7 6 7 6 5 6 7 7 7 9 10 9 8 6 6 7 8 7 6 5 4 3 2 1 0 1 4 4 5 6 7 6 5 4 5 5 4 4 2 2 1 0 1
18 19 20 20 20 20 19 18 17 17 16 13 10 9 9 8 7 7 6 4 1 2 3 5 5 7 8 9 10 10 9 8 8 8 8 8 8 9 9 10 11 12 11 9 8 8 9 8 7 5 4 2 2 2 3 3 2 4 6 6 5 4 4 4 4 4 3 3 2 1 1 1 0 1
21 21 22 23 24 24 23 22 21 21 20 19 16 14 13 12 12 11 11 8 6 3 2 3 4 6 8 9 10 9 8 8 8 7 8 9 10 10 11 12 13 13 13 11 10 10 11 9 7 5 4 2 2 3 5 6 5 3 4 4 4 3 3 4 4 3 3 2 1 1 2 2 2 2
25 26 27 27 27 28 28 27 26 24 24 23 23 21 20 19 18 17 15 13 11 8 6 3 1 3 4 6 7 8 8 7 7 7 8 10 11 11 12 13 13 15 15 13 12 13 13 11 9 7 5 4 3 4 6 7 6 4 3 2 1 1 1 1 1 1 1 1 2 1 1 1 2 3
27 28 29 29 29 30 30 29 29 27 25 25 25 25 24 23 22 21 19 17 15 13 10 7 5 3 3 3 4 5 5 5 6 7 8 10 11 13 14 14 14 16 17 16 15 15 14 12 10 9 8 6 5 6 7 8 8 6 4 4 3 3 3 3 3 4 4 3 1 2 2 1 1 1
Wind_Direction
245 245 241 237 235 234 231 231 231 230 230 229 229 230 226 221 220 235 247 245 246 251 249 254 267 272 272 272 270 267 264 263 262 263 265 268 269 269 269 269 269 269 269 267 265 262 261 261 259 258 259 260 259 257 259 262 263 263 263 264 264 263 262 261 260 260 261 262 264 264 261 259 258 258
244 242 240 237 236 236 233 232 233 231 231 231 230 231 229 225 220 218 240 252 244 244 247 250 261 274 279 278 276 270 264 261 260 263 268 271 273 274 274 274 273 273 272 270 267 263 261 259 257 256 258 259 259 259 259 260 261 262 262 262 263 263 260 259 258 258 258 260 262 262 260 257 256 254
241 237 238 237 236 237 236 234 235 232 231 232 231 230 229 226 224 219 219 251 249 240 242 248 257 270 277 278 276 270 262 256 256 260 266 270 274 276 276 277 276 275 273 271 268 265 262 259 259 260 261 261 261 260 259 260 262 262 261 260 261 262 261 259 257 255 256 257 259 259 257 253 252 251
238 235 236 237 238 239 236 234 234 233 232 232 232 231 229 227 225 221 216 231 250 243 242 249 254 258 265 271 270 264 257 251 249 253 259 264 268 269 272 275 275 275 275 274 272 269 266 265 264 263 262 261 261 261 261 261 260 260 259 259 260 261 262 261 258 255 254 256 256 255 252 249 250 251
237 236 237 239 242 241 236 234 234 232 232 231 231 231 229 227 225 219 216 223 246 250 248 251 253 252 256 263 262 257 253 249 247 251 258 263 263 265 271 275 274 273 274 275 275 274 271 269 266 264 263 262 261 260 259 258 257 256 256 258 260 260 260 261 259 254 253 253 253 250 247 246 248 249
235 235 235 236 238 238 235 235 234 233 231 228 229 229 228 227 224 218 217 219 233 249 249 250 255 255 254 256 256 253 250 250 253 258 262 265 264 265 270 274 274 274 274 274 274 272 271 267 265 264 263 262 260 258 257 255 254 254 254 256 259 259 258 259 257 254 250 249 249 246 243 244 245 246
234 231 231 232 234 234 233 234 234 234 232 228 226 227 227 227 225 220 218 218 223 239 246 247 251 250 247 248 251 251 251 254 257 261 263 264 264 265 267 269 271 272 273 273 270 268 267 265 263 262 261 261 259 258 257 256 255 254 253 254 256 256 256 256 255 250 246 245 245 242 241 242 244 244
235 231 230 231 233 234 232 232 233 232 231 228 226 225 225 227 227 223 220 219 222 232 241 245 247 246 245 247 251 253 253 255 256 258 262 265 267 267 266 266 269 271 273 273 268 266 266 266 266 265 264 264 263 261 259 257 256 255 253 252 253 253 254 253 250 245 243 243 241 239 238 241 243 244
237 235 232 231 233 233 231 230 230 230 228 227 225 224 224 225 226 225 221 220 223 229 236 243 247 247 246 248 253 255 254 254 254 256 261 265 268 270 268 268 271 273 274 272 269 266 266 268 270 270 270 270 267 263 259 256 254 252 250 249 250 250 250 249 247 244 242 241 239 236 236 239 242 243
241 239 236 234 233 232 230 229 229 228 226 225 223 224 225 224 222 221 220 219 221 226 232 239 244 245 245 248 253 255 253 250 253 259 264 266 268 269 271 272 272 273 272 271 268 265 265 268 272 272 273 274 270 263 257 254 251 246 245 246 247 249 249 248 246 243 241 239 236 234 234 237 240 241
244 242 240 238 235 234 232 231 231 230 226 224 223 223 224 223 219 216 216 217 218 222 229 234 239 242 245 248 252 254 251 249 254 259 262 264 266 268 270 272 273 273 272 269 266 263 263 266 268 268 272 276 276 266 254 249 247 242 241 244 247 249 249 247 243 239 238 236 233 232 233 236 237 238
247 246 243 240 238 238 237 235 234 233 228 224 223 222 223 222 217 213 213 214 215 219 224 229 234 239 242 245 248 250 246 242 248 253 252 256 265 270 271 272 273 273 270 267 265 263 263 264 266 268 271 275 279 272 254 243 241 239 239 242 245 248 247 244 239 235 233 231 230 230 233 235 237 236
250 250 249 245 241 240 240 239 238 237 233 228 224 221 219 218 215 212 210 210 212 216 221 227 230 233 238 241 241 240 237 235 243 251 249 250 260 268 270 270 270 269 266 264 264 264 263 263 265 265 265 268 277 276 256 239 234 235 237 241 244 245 244 240 235 232 230 229 229 231 233 236 237 235
254 254 253 250 246 244 242 241 240 240 237 232 229 225 219 216 212 207 207 208 210 214 219 224 225 226 235 239 236 237 240 241 244 247 242 244 253 259 263 268 269 266 262 259 259 261 261 261 260 256 255 258 265 267 252 236 231 232 235 239 241 240 239 237 232 230 229 230 232 233 234 236 235 232
256 257 255 253 250 246 242 240 240 240 238 235 232 229 224 221 215 208 205 207 208 212 219 224 223 222 233 241 239 239 244 244 243 244 240 240 243 241 242 261 269 267 261 253 252 257 258 256 252 250 249 249 249 252 249 239 233 233 231 232 233 232 232 230 228 228 229 229 230 231 232 232 231 228
257 256 256 257 254 245 239 236 235 237 238 236 233 230 227 225 222 216 213 211 209 211 216 222 223 222 230 239 240 239 240 241 242 243 242 238 236 234 231 239 254 263 262 251 248 255 257 250 246 247 246 240 239 246 248 240 233 231 228 225 224 224 224 223 221 225 226 226 228 229 228 227 227 224
258 257 259 262 256 242 234 231 230 232 234 234 232 230 227 225 224 222 220 218 216 215 215 218 223 226 228 233 238 240 239 238 238 237 236 236 235 232 232 240 251 257 258 250 243 247 250 246 242 247 244 234 235 243 242 238 235 230 225 221 214 212 218 220 218 222 227 227 228 227 223 219 219 218
263 262 263 263 252 235 226 226 226 226 228 227 225 225 224 222 222 221 220 220 220 220 219 221 226 230 229 232 241 246 242 238 239 238 238 237 236 236 242 250 255 255 258 259 242 235 244 242 238 244 242 230 231 236 232 232 234 228 225 222 214 208 214 218 215 220 228 228 224 222 219 217 216 216
274 272 269 260 243 227 222 223 223 222 221 219 216 216 217 218 218 218 219 220 221 221 222 225 229 233 235 238 244 248 246 245 248 249 247 246 244 244 247 250 249 249 255 250 229 223 243 238 229 239 241 229 226 226 220 219 221 220 223 224 221 217 217 220 220 222 225 225 223 222 219 218 219 219
286 284 274 251 230 221 222 222 221 219 215 209 205 207 210 212 214 217 219 222 222 223 224 227 231 235 238 241 245 247 248 251 253 249 243 240 234 229 229 232 235 238 239 229 218 219 237 229 223 235 237 228 224 221 216 216 216 217 218 217 220 221 219 219 222 223 223 223 224 225 222 221 223 223
359 340 301 240 218 213 213 213 211 208 200 192 190 195 199 202 206 213 219 221 223 224 225 227 231 234 237 240 243 245 245 246 244 231 222 221 215 204 203 220 228 227 224 219 215 218 231 229 221 223 224 225 226 222 217 213 209 212 217 212 212 216 218 220 222 224 226 225 225 228 225 222 223 223
45 42 41 47 179 198 199 200 199 194 186 181 183 186 189 192 199 208 214 218 222 224 226 228 231 234 238 241 241 240 236 233 228 217 215 219 210 196 197 211 219 223 227 222 213 211 226 229 209 197 202 218 222 217 213 212 212 217 225 220 214 213 220 228 229 228 229 225 226 230 225 222 225 223
47 47 46 45 50 96 186 199 200 199 196 193 195 197 196 198 207 214 215 216 219 220 222 226 229 232 235 235 232 229 224 219 217 215 220 220 205 196 205 210 205 213 230 224 212 207 215 216 196 182 176 191 217 216 211 209 214 221 226 225 220 214 218 227 230 227 223 219 220 224 223 225 225 217
44 46 45 44 47 57 74 118 163 185 196 199 203 206 204 205 216 220 217 214 213 213 214 217 222 224 222 219 219 218 212 209 212 214 218 219 208 204 212 212 207 214 239 225 211 206 207 204 192 186 183 169 197 212 212 211 214 220 224 224 220 217 219 224 221 209 205 208 213 218 222 224 221 214
42 44 43 41 43 51 59 67 79 93 107 121 128 140 158 170 182 195 201 203 203 203 203 204 210 214 212 209 210 207 200 203 210 212 216 220 218 218 222 220 218 225 244 247 215 205 199 188 184 185 190 188 173 187 204 215 218 218 221 223 222 219 219 223 215 191 191 200 208 214 215 213 213 216
43 45 46 43 41 45 52 58 63 69 75 81 82 84 91 103 112 118 137 168 186 192 192 191 194 199 201 199 196 194 195 202 210 214 218 223 225 227 230 232 230 228 237 250 227 205 192 182 185 186 182 176 171 171 186 206 217 220 220 221 222 219 216 221 218 192 187 193 201 210 214 209 208 218
45 44 47 49 46 45 48 52 55 59 64 69 72 73 74 78 85 92 97 109 140 165 170 169 170 173 179 181 176 176 188 197 205 216 223 226 229 231 232 235 238 236 237 245 238 216 203 197 200 198 187 173 168 177 188 199 211 219 220 221 224 220 215 220 223 206 195 195 199 206 214 217 217 226
43 39 37 41 47 49 49 49 51 53 54 57 62 68 71 70 71 75 79 79 84 105 128 140 147 151 154 154 152 156 167 177 187 201 209 217 224 227 227 226 227 231 231 228 221 208 202 202 207 204 195 185 179 182 199 214 221 227 226 224 227 226 221 220 223 218 209 204 204 207 213 217 221 227
35 33 26 26 35 43 46 47 49 51 51 51 53 59 66 71 70 69 73 74 68 68 82 98 107 118 126 131 139 146 154 167 180 185 187 194 203 204 203 204 207 213 215 208 194 184 190 197 203 203 200 199 199 200 205 211 220 231 231 224 225 231 230 224 222 222 219 216 215 216 218 221 224 229
20 20 16 15 22 31 37 39 42 46 51 52 51 53 59 68 70 66 72 79 71 58 59 67 70 78 102 116 125 133 142 154 167 175 182 188 188 184 179 180 187 189 186 183 177 171 178 193 201 204 201 201 207 215 218 212 207 220 230 227 224 230 231 224 221 221 221 221 222 225 227 228 231 234
20 14 10 12 18 26 32 36 39 43 48 50 50 51 54 60 67 67 70 78 76 61 55 56 54 59 85 103 112 124 132 129 124 137 158 162 162 167 165 155 151 162 173 178 177 173 176 182 187 193 194 193 203 220 226 222 218 223 229 227 223 225 226 221 221 222 224 226 228 230 231 231 233 238
19 16 12 16 21 24 27 31 33 37 41 44 46 50 54 58 67 76 79 81 84 80 78 76 64 68 84 90 88 94 108 108 99 103 121 123 130 149 153 137 119 122 136 151 161 166 170 170 172 179 185 189 200 215 224 227 228 228 228 226 226 229 232 230 230 230 229 231 233 234 236 233 232 236
4 7 6 8 13 14 15 14 13 13 15 20 31 43 55 63 70 79 83 87 91 91 107 142 149 108 84 81 72 72 86 92 89 95 110 110 114 129 138 137 130 121 115 113 123 138 147 152 161 174 186 197 208 215 219 225 226 225 228 233 235 235 235 237 239 235 231 232 234 238 243 244 240 239
352 357 357 357 359 359 358 357 356 354 352 352 2 16 36 57 72 83 83 87 96 98 115 145 157 155 132 120 106 88 91 92 92 105 126 134 131 126 124 126 128 124 115 107 106 111 121 132 147 163 174 182 186 190 203 214 215 211 214 224 233 233 232 236 237 232 233 238 237 234 239 246 251 253
353 354 353 354 355 353 348 345 344 344 343 344 345 346 355 10 25 59 108 112 108 110 129 147 152 154 158 158 152 147 144 133 117 110 118 130 133 129 125 123 121 117 110 101 94 92 95 108 132 144 142 137 132 133 154 187 198 190 180 185 207 218 222 229 231 228 232 237 232 226 231 242 253 262
359 359 355 353 354 353 349 345 343 343 345 348 347 338 333 333 337 329 163 162 159 150 154 161 165 166 166 161 150 141 137 136 131 124 119 116 118 121 126 129 126 117 108 98 87 78 75 73 84 103 103 95 91 91 90 112 140 148 142 142 158 180 189 200 211 220 230 233 229 226 229 238 251 264
355 357 357 356 356 355 353 351 351 351 351 355 11 360 335 317 307 287 208 185 183 182 177 178 181 181 179 173 158 148 144 142 136 125 117 118 121 123 127 132 130 122 116 112 98 77 70 69 73 91 95 87 81 77 59 86 108 105 91 96 114 133 153 169 187 204 219 226 229 231 234 243 258 273
356 355 354 354 355 358 360 2 5 6 2 3 64 114 315 310 315 290 252 218 202 198 195 193 194 195 201 207 205 207 211 203 187 169 152 142 138 133 131 135 135 127 121 122 115 101 99 99 93 97 104 109 115 113 88 93 104 89 23 345 105 130 148 156 166 184 197 212 226 231 236 248 265 285
13 7 2 359 360 2 7 11 15 17 12 6 32 115 146 179 210 247 239 209 202 209 214 214 212 212 216 222 227 232 226 212 195 182 171 165 161 150 139 143 149 145 134 129 123 120 126 125 111 102 99 98 107 133 142 110 75 45 356 205 140 122 135 141 135 137 145 156 179 204 223 244 263 288
33 29 24 21 21 21 22 22 22 24 23 16 23 54 77 113 205 243 195 174 191 214 223 224 223 224 229 235 236 223 207 196 189 185 178 172 174 172 164 163 168 167 159 148 142 146 153 149 140 130 116 101 97 108 151 296 22 47 98 166 141 117 114 119 113 112 117 120 122 130 149 199 228 331
40 40 39 40 41 40 39 37 35 36 37 33 33 52 68 79 80 67 95 166 207 224 229 231 231 229 232 234 226 213 208 210 215 217 214 205 192 187 185 183 184 181 173 166 168 178 173 160 150 146 140 127 118 106 84 59 65 73 100 151 153 132 121 122 117 116 120 123 125 133 138 140 267 323
40 43 45 48 51 50 49 49 50 51 50 49 52 57 58 60 64 65 62 53 12 287 260 253 242 227 223 221 217 216 220 223 222 223 226 220 205 195 194 193 189 187 187 192 200 197 185 172 160 156 160 159 148 140 145 159 141 91 93 116 136 136 135 145 153 160 167 166 166 173 169 167 261 314
45 51 55 58 60 60 60 59 58 59 60 60 61 64 63 61 57 53 49 46 40 24 339 290 257 233 221 216 216 220 222 219 217 220 223 217 206 197 197 197 195 196 203 211 208 194 184 180 177 184 196 193 177 183 182 176 168 138 112 117 123 121 120 122 127 133 140 148 175 233 237 227 235 251
56 60 63 64 64 64 64 63 62 64 65 64 63 63 61 59 57 52 47 43 40 37 34 21 324 257 238 226 224 225 225 224 225 227 226 224 223 221 219 214 212 213 215 212 202 192 190 192 199 211 221 215 202 207 202 190 186 188 180 166 165 181 196 202 186 171 136 78 61 23 300 248 244 262
64 64 63 63 63 62 61 60 60 61 62 62 62 59 55 53 51 47 43 38 32 27 23 19 13 358 328 297 270 256 254 255 252 250 246 241 238 238 236 232 228 223 217 208 200 196 197 199 206 215 222 223 223 226 218 207 205 212 221 232 248 259 265 276 284 282 281 287 329 4 358 6 16 345